sat.trackr.live / text

‹ back to catalog

STARLINK-31603

NORAD 59201 · 2024-046A

PAYLOAD ACTIVE UNKNOWN

§ Identity

Operator
Country
US
Launch date
2024-03-11
Launch site
AFWTR
Launch vehicle
Mass (kg)
RCS (m²)

Purposes: comms

External: N2YO · Heavens-Above · Gunter

§ Orbital elements

Epoch: 2026-05-25T00:42:55.538208Z

Period
94.11 min
Inclination
53.1594°
Eccentricity
0.0001180
Mean motion
15.30191162 rev/d
Perigee alt
474.4 km
Apogee alt
476.1 km
Semi-major
6,853.4 km
B*
-1.5269e-6
RAAN
161.0279°
Arg perigee
83.3450°
Mean anomaly
276.7685°
Rev number
12,473

§ Raw data

STARLINK-316031 59201U 24046A   26145.02980947 -.00000404  00000+0 -15269-5 0  99972 59201  53.1594 161.0279 0001180  83.3450 276.7685 15.30191162124732

JSON: /api/v1/satellites/59201 · /tle

For live sub-satellite position, see the globe view (requires WebGL).

§ Visibility from observer

Set your observer location to see the next 7 days of passes ≥ 10°. The values pass through the URL so the page stays shareable.

No JS? Fill the form by hand. The geolocation button needs JavaScript.